Stations météo

réclame
Mon MeteoGroup
München-Flughafen, Allemagne (10870): Température de l'air & dewpoint: 15.06.2018 12:00:00 - 21.06.2018 12:00:00 (CEST)München-Flughafen, Allemagne (10870): Température de l'air 5cm & Température de l'air -5cm: 15.06.2018 12:00:00 - 21.06.2018 12:00:00 (CEST)München-Flughafen, Allemagne (10870): Température de l'air -20cm & Température de l'air -100cm: 15.06.2018 12:00:00 - 21.06.2018 12:00:00 (CEST)München-Flughafen, Allemagne (10870): Vitesse du vent & gusts: 15.06.2018 12:00:00 - 21.06.2018 12:00:00 (CEST)München-Flughafen, Allemagne (10870): Direction du vent: 15.06.2018 12:00:00 - 21.06.2018 12:00:00 (CEST)München-Flughafen, Allemagne (10870): reduced air pressure: 15.06.2018 12:00:00 - 21.06.2018 12:00:00 (CEST)München-Flughafen, Allemagne (10870): visibility: 15.06.2018 12:00:00 - 21.06.2018 12:00:00 (CEST)München-Flughafen, Allemagne (10870): Ensoleillement: 15.06.2018 12:00:00 - 21.06.2018 12:00:00 (CEST)München-Flughafen, Allemagne (10870): Quantités de précipitations: 15.06.2018 12:00:00 - 21.06.2018 12:00:00 (CEST)
Date & Time tt [°C] td [°C] tt 5cm [°C] tt -5cm [°C] tt -20cm [°C] tt -100cm [°C] ff [km/h] ff [knt] fx [km/h] fx [knt] dd ppp [hPa] vv [km] sd [min] rr [mm]
21.06.2018 12:00:00 26,6 16,4 30,5 32,7 22,2 17,7 18 10 27 14 W 1013,0 50 49 0,0
21.06.2018 11:00:00 25,5 16,3 29,1 30,3 22,0 17,7 16 8 34 18 WSW 1013,4 50 53 0,0
21.06.2018 10:00:00 24,4 16,0 28,3 27,8 21,9 17,7 11 6 18 10 SW 1014,0 10 60 0,0
21.06.2018 09:00:00 22,1 15,7 25,3 24,2 22,1 17,7 7 4 14 8 SW 1014,8 40 60 0,0
21.06.2018 08:00:00 19,3 14,5 22,0 20,9 22,3 17,7 9 5 16 9 WSW 1015,8 10 60 0,0
21.06.2018 07:00:00 16,8 13,5 17,8 18,6 22,7 17,6 0 0 4 2 N 1016,4 40 60 0,0
21.06.2018 06:00:00 14,1 13,4 13,2 17,7 23,0 17,6 2 1 4 2 S 1016,9 20 16 0,0
21.06.2018 05:00:00 12,1 11,7 11,1 18,1 23,4 17,6 4 2 4 2 SE 1017,3 25 0 0,0
21.06.2018 04:00:00 12,5 12,0 11,2 18,7 23,8 17,6 0 0 2 1 N 1017,8 25 0 0,0
21.06.2018 03:00:00 13,3 12,6 12,1 19,6 24,2 17,6 2 1 4 2 SE 1018,0 10 0 0,0
21.06.2018 02:00:00 14,0 13,4 12,3 20,5 24,5 17,6 3 1 4 2 SSW 1018,3 30 0 0,0
21.06.2018 01:00:00 14,7 13,5 13,0 21,5 24,9 17,6 2 1 4 2 NW 1018,6 10 0 0,0
21.06.2018 00:00:00 15,7 13,9 13,4 22,8 25,2 17,6 2 1 4 2 NW 1018,8 60 0 0,0
20.06.2018 23:00:00 17,6 14,6 15,1 24,3 25,4 17,6 0 0 4 2 N 1018,6 60 0 0,0
20.06.2018 22:00:00 18,8 14,9 16,6 26,4 25,5 17,6 0 0 5 3 N 1018,3 10 10 0,0
20.06.2018 21:00:00 24,0 13,4 21,0 29,1 25,4 17,6 4 2 5 3 NNE 1017,2 70 60 0,0
20.06.2018 20:00:00 25,5 13,1 25,5 31,9 25,2 17,6 5 3 11 6 NE 1017,0 10 60 0,0
20.06.2018 19:00:00 26,0 12,3 27,1 34,3 24,8 17,6 8 4 15 8 NNE 1017,2 70 60 0,0
20.06.2018 18:00:00 26,4 13,2 29,5 36,3 24,3 17,6 9 5 22 12 ENE 1017,3 10 60 0,0
20.06.2018 17:00:00 26,7 13,3 30,7 37,6 23,7 17,6 9 5 22 12 NNE 1017,9 70 60 0,0
20.06.2018 16:00:00 26,2 11,4 32,0 38,1 23,0 17,6 8 4 24 13 E 1018,4 10 60 0,0
20.06.2018 15:00:00 25,8 12,2 31,4 37,5 22,3 17,6 8 4 22 12 ENE 1018,9 10 49 0,0
20.06.2018 14:00:00 25,6 12,5 31,3 37,4 21,7 17,5 15 8 27 14 E 1019,4 55 60 0,0
20.06.2018 13:00:00 25,1 12,5 30,3 34,9 21,1 17,5 15 8 38 21 E 1020,2 10 58 0,0
20.06.2018 12:00:00 23,8 11,1 26,9 32,7 20,7 17,5 9 5 29 16 E 1020,6 10 58 0,0
20.06.2018 11:00:00 23,8 14,7 28,0 29,5 20,4 17,5 13 7 25 13 E 1020,7 10 60 0,0
20.06.2018 10:00:00 22,7 15,5 26,7 26,2 20,3 17,5 11 6 18 10 E 1021,2 10 60 0,0
20.06.2018 09:00:00 20,8 14,6 24,0 22,8 20,3 17,5 9 5 13 7 ENE 1021,9 45 60 0,0
20.06.2018 08:00:00 19,0 13,5 21,5 19,6 20,5 17,5 4 2 5 3 NE 1022,5 45 60 0,0
20.06.2018 07:00:00 16,5 13,3 18,1 17,0 20,8 17,5 2 1 4 2 NNW 1022,9 35 60 0,0
20.06.2018 06:00:00 12,3 11,6 11,7 16,2 21,1 17,5 2 1 8 4 N 1023,7 10 12 0,0
20.06.2018 05:00:00 12,5 12,2 10,9 16,7 21,4 17,5 2 1 4 2 ESE 1023,7 10 0 0,0
20.06.2018 04:00:00 12,9 12,5 12,0 17,4 21,6 17,5 0 0 4 2 N 1023,7 40 0 0,0
20.06.2018 03:00:00 14,3 13,7 12,5 18,3 21,9 17,5 0 0 5 3 N 1023,6 50 0 0,0
20.06.2018 02:00:00 14,8 13,7 14,1 18,9 22,2 17,5 2 1 4 2 E 1023,8 50 0 0,0
20.06.2018 01:00:00 14,5 13,7 12,6 19,4 22,4 17,5 0 0 4 2 N 1024,1 50 0 0,0
20.06.2018 00:00:00 15,7 14,0 14,7 20,6 22,6 17,5 0 0 2 1 N 1023,9 10 0 0,0
19.06.2018 23:00:00 16,7 14,3 16,2 21,7 22,8 17,5 2 1 4 2 - 1023,6 10 0 0,0
19.06.2018 22:00:00 18,7 13,8 16,1 22,8 22,8 17,5 4 2 5 3 E 1023,2 10 3 0,0
19.06.2018 21:00:00 20,3 13,2 17,9 25,1 22,8 17,5 5 3 8 4 N 1022,6 10 47 0,0
19.06.2018 20:00:00 23,1 13,2 23,2 27,6 22,6 17,5 5 3 11 6 N 1022,1 10 60 0,0
19.06.2018 19:00:00 23,2 13,6 25,1 28,7 22,3 17,5 8 5 15 8 NW 1022,1 60 18 0,0
19.06.2018 18:00:00 23,4 12,7 26,2 29,6 21,9 17,5 9 5 16 9 WNW 1022,2 60 10 0,0
19.06.2018 17:00:00 23,8 13,3 29,6 31,1 21,5 17,5 10 6 21 11 W 1022,4 60 22 0,0
19.06.2018 16:00:00 23,6 13,3 30,2 31,6 21,1 17,5 12 6 28 15 W 1022,7 50 44 0,0
19.06.2018 15:00:00 22,7 13,4 27,5 29,5 20,8 17,5 12 7 22 12 W 1023,3 50 22 0,0
19.06.2018 14:00:00 21,6 13,2 24,4 27,4 20,4 17,4 11 6 24 13 W 1023,8 10 5 0,0
19.06.2018 13:00:00 21,0 12,2 24,2 28,0 20,0 17,4 13 7 22 12 WNW 1023,9 50 8 0,0
19.06.2018 12:00:00 20,8 12,3 23,6 28,8 19,6 17,4 12 6 24 13 WSW 1024,1 50 37 0,0
19.06.2018 11:00:00 21,1 13,6 26,2 26,3 19,5 17,4 9 5 26 14 WNW 1024,1 10 52 0,0
19.06.2018 10:00:00 20,0 12,9 25,0 22,1 19,5 17,4 10 5 15 8 WSW 1024,5 35 - 0,0
19.06.2018 09:00:00 17,8 12,6 20,5 19,4 19,6 17,4 10 5 16 9 WSW 1024,8 35 - 0,0
19.06.2018 08:00:00 16,4 12,1 17,5 17,7 19,8 17,4 9 5 11 6 W 1024,7 10 - 0,0
19.06.2018 07:00:00 14,3 11,9 14,3 15,8 20,0 17,4 2 1 5 3 W 1024,8 30 - 0,0
19.06.2018 06:00:00 12,6 11,3 12,3 15,1 20,4 17,4 4 2 5 3 SSW 1024,8 30 - 0,0
19.06.2018 05:00:00 10,1 9,7 9,0 14,7 20,7 17,4 4 2 5 3 S 1024,8 30 - 0,0
19.06.2018 04:00:00 10,8 10,5 9,2 15,3 21,0 17,4 3 2 4 2 SSE 1024,5 30 - 0,0
19.06.2018 03:00:00 11,0 10,6 9,1 15,9 21,4 17,4 2 1 4 2 S 1024,3 30 - 0,0
19.06.2018 02:00:00 11,3 10,4 9,6 16,7 21,7 17,4 3 2 5 3 SSW 1024,3 30 - 0,0
19.06.2018 01:00:00 11,6 10,3 10,4 17,5 22,0 17,4 2 1 4 2 SW 1024,1 30 - 0,0
19.06.2018 00:00:00 13,5 11,6 11,7 18,6 22,3 17,4 2 1 5 3 WNW 1023,6 50 - 0,0
18.06.2018 23:00:00 14,4 10,9 12,2 19,9 22,5 17,4 2 1 4 2 W 1023,3 50 - 0,0
18.06.2018 22:00:00 16,9 11,0 13,7 21,7 22,6 17,4 2 1 8 4 NNW 1022,3 50 - 0,0
18.06.2018 21:00:00 20,2 10,1 18,4 24,0 22,6 17,4 6 3 9 5 NW 1021,2 50 - 0,0
18.06.2018 20:00:00 21,7 10,2 22,1 26,1 22,4 17,4 8 4 16 9 WNW 1020,7 10 - 0,0
18.06.2018 19:00:00 22,2 10,6 23,9 28,4 22,1 17,4 15 8 22 12 W 1020,6 10 - 0,0
18.06.2018 18:00:00 22,3 11,1 25,2 30,3 21,7 17,4 9 5 22 12 NW 1020,3 10 - 0,0
18.06.2018 17:00:00 22,3 11,4 29,3 31,7 21,2 17,4 11 6 26 14 W 1020,6 45 - 0,0
18.06.2018 16:00:00 21,9 11,4 26,0 31,9 20,7 17,4 13 7 28 15 WNW 1020,9 45 - 0,0
18.06.2018 15:00:00 21,4 11,5 26,2 31,0 20,3 17,4 12 6 25 13 W 1021,2 45 - 0,0
18.06.2018 14:00:00 21,9 12,5 28,2 29,9 19,9 17,4 13 7 29 16 W 1021,3 10 - 0,0
18.06.2018 13:00:00 19,9 10,0 26,2 27,9 19,6 17,4 9 5 21 11 W 1022,1 10 - 0,0
18.06.2018 12:00:00 18,9 10,0 24,8 24,6 19,5 17,4 11 6 18 10 W 1022,2 10 - 0,0
18.06.2018 11:00:00 17,8 10,3 21,5 21,2 19,5 17,3 9 5 28 15 W 1022,5 45 - 0,0
18.06.2018 10:00:00 17,6 11,2 19,7 19,7 19,6 17,3 13 7 18 10 WNW 1022,3 10 - 0,0
18.06.2018 09:00:00 16,7 11,0 16,9 18,7 19,7 17,3 9 5 15 8 W 1022,0 10 - 0,0
18.06.2018 08:00:00 16,3 11,5 15,5 17,6 19,9 17,3 9 5 16 9 W 1021,8 10 - 0,0
18.06.2018 07:00:00 16,1 12,0 15,0 17,0 20,1 17,3 8 4 13 7 W 1021,6 10 - 0,0
18.06.2018 06:00:00 15,1 14,1 14,6 16,7 20,3 17,3 8 4 15 8 W 1021,6 10 - 0,0
18.06.2018 05:00:00 15,1 14,1 14,5 17,2 20,5 17,3 11 6 18 10 WSW 1021,2 10 - 0,0
18.06.2018 04:00:00 15,4 14,5 15,1 17,3 20,7 17,3 11 6 21 11 WSW 1021,0 10 - 0,0
18.06.2018 03:00:00 15,6 14,5 15,1 17,7 21,0 17,3 11 6 17 9 W 1020,8 10 - 0,0
18.06.2018 02:00:00 15,7 14,6 15,4 18,2 21,2 17,3 9 5 15 8 W 1020,7 10 - 0,0
18.06.2018 01:00:00 15,7 14,8 15,4 18,6 21,4 17,3 11 6 15 8 WSW 1020,6 25 - 0,1
18.06.2018 00:00:00 16,1 14,6 15,6 19,1 21,6 17,3 10 6 21 11 WSW 1020,2 25 - 0,6
17.06.2018 23:00:00 16,4 15,1 16,1 20,1 21,8 17,3 14 7 26 14 WSW 1019,7 25 - 0,3
17.06.2018 22:00:00 18,0 13,8 18,0 21,6 21,9 17,3 9 5 13 7 W 1018,8 10 0 0,0
17.06.2018 21:00:00 20,3 12,0 19,6 22,8 21,9 17,3 8 4 15 8 NNW 1017,3 10 3 0,0
17.06.2018 20:00:00 21,2 11,8 20,6 24,6 21,7 17,3 8 4 19 10 NW 1016,4 10 29 0,0
17.06.2018 19:00:00 22,4 11,1 23,6 27,5 21,5 17,3 16 9 25 14 WNW 1015,8 50 59 0,0
17.06.2018 18:00:00 22,4 13,4 24,9 28,7 21,1 17,3 15 8 27 14 NW 1015,5 10 53 0,0
17.06.2018 17:00:00 23,1 13,2 27,0 29,0 20,8 17,3 16 9 27 15 WNW 1015,6 40 56 0,0
17.06.2018 16:00:00 22,4 13,4 28,8 28,3 20,5 17,3 10 6 21 11 NW 1015,8 40 17 0,0
17.06.2018 15:00:00 21,2 13,9 23,8 27,6 20,2 17,3 17 9 29 16 W 1016,5 35 26 0,0
17.06.2018 14:00:00 21,8 14,1 25,1 27,2 19,8 17,3 19 10 30 16 W 1016,3 30 14 0,0
17.06.2018 13:00:00 22,1 14,0 25,4 27,9 19,5 17,3 15 8 29 16 W 1016,2 10 29 0,0
17.06.2018 12:00:00 21,7 13,4 24,8 25,5 19,3 17,3 13 7 22 12 W 1016,4 10 15 0,0
17.06.2018 11:00:00 21,2 12,3 24,8 23,8 19,2 17,3 9 5 16 9 WSW 1016,4 10 36 0,0
17.06.2018 10:00:00 19,9 12,5 22,8 21,1 19,2 17,3 13 7 26 14 W 1016,5 10 30 0,0
17.06.2018 09:00:00 18,2 12,2 20,0 19,4 19,3 17,3 11 6 16 9 W 1016,5 10 46 0,0
17.06.2018 08:00:00 15,7 12,0 16,2 16,9 19,5 17,3 8 5 12 6 SW 1016,9 30 0 0,0
17.06.2018 07:00:00 13,7 11,2 13,8 15,6 19,8 17,3 2 1 8 4 W 1016,8 10 0 0,0
17.06.2018 06:00:00 11,2 10,6 11,4 14,6 20,2 17,3 3 2 5 3 SW 1017,0 30 0 0,0
17.06.2018 05:00:00 10,1 9,5 8,8 14,6 20,5 17,3 4 2 5 3 SW 1017,1 35 0 0,0
17.06.2018 04:00:00 10,8 10,3 8,9 15,3 20,9 17,3 4 2 4 2 S 1017,0 10 0 0,0
17.06.2018 03:00:00 11,8 11,1 9,4 16,1 21,2 17,3 2 1 4 2 E 1016,7 35 0 0,0
17.06.2018 02:00:00 12,1 10,8 10,4 16,9 21,5 17,3 0 0 8 4 N 1016,7 10 0 0,0
17.06.2018 01:00:00 12,4 10,6 10,8 17,7 21,9 17,3 5 3 18 10 E 1016,7 10 0 0,0
17.06.2018 00:00:00 13,3 10,7 11,0 18,9 22,2 17,3 2 1 5 3 W 1016,3 45 0 0,0
16.06.2018 23:00:00 14,2 10,7 12,0 20,2 22,4 17,3 0 0 5 3 N 1015,9 50 0 0,0
16.06.2018 22:00:00 15,4 11,8 13,1 22,1 22,5 17,3 5 3 8 4 NW 1015,3 10 0 0,0
16.06.2018 21:00:00 19,9 10,4 15,7 24,8 22,4 17,3 5 3 8 4 NNW 1013,9 10 40 0,0
16.06.2018 20:00:00 23,1 9,2 22,9 27,9 22,1 17,3 5 3 13 7 NNW 1013,2 10 60 0,0
16.06.2018 19:00:00 23,8 7,6 25,1 30,3 21,7 17,3 5 3 11 6 NE 1012,9 10 51 0,0
16.06.2018 18:00:00 24,1 9,0 27,9 32,7 21,2 17,3 6 3 11 6 WSW 1013,0 60 60 0,0
16.06.2018 17:00:00 24,0 6,9 28,2 33,8 20,5 17,3 5 3 18 10 S 1013,3 60 60 0,0
16.06.2018 16:00:00 24,0 9,6 29,7 34,1 19,9 17,3 5 3 19 10 - 1013,6 10 60 0,0
16.06.2018 15:00:00 23,1 8,0 28,3 33,3 19,3 17,3 7 4 18 10 N 1014,0 50 60 0,0
16.06.2018 14:00:00 22,4 7,3 27,6 31,0 18,7 17,4 8 4 21 11 NNE 1014,6 10 60 0,0
16.06.2018 13:00:00 22,5 9,5 27,4 28,6 18,2 17,4 13 7 26 14 ESE 1015,0 50 53 0,0
16.06.2018 12:00:00 21,4 8,9 25,9 26,6 17,8 17,4 11 6 27 15 - 1015,4 10 60 0,0
16.06.2018 11:00:00 20,8 11,8 24,4 25,0 17,5 17,4 8 4 16 9 E 1015,5 10 60 0,0
16.06.2018 10:00:00 19,7 10,6 22,7 22,3 17,4 17,4 2 1 8 4 - 1015,8 10 60 0,0
16.06.2018 09:00:00 17,2 10,2 20,2 18,9 17,5 17,4 1 1 5 3 S 1016,2 30 60 0,0
16.06.2018 08:00:00 14,2 10,8 15,6 15,3 17,7 17,4 4 2 9 5 S 1016,6 20 60 0,0
16.06.2018 07:00:00 11,4 9,7 11,7 12,8 18,0 17,4 2 1 4 2 E 1017,3 20 60 0,0
16.06.2018 06:00:00 8,2 8,0 6,9 11,8 18,3 17,4 0 0 5 3 N 1017,7 25 11 0,0
16.06.2018 05:00:00 8,9 8,6 6,6 12,2 18,6 17,4 4 2 4 2 ESE 1017,5 25 0 0,0
16.06.2018 04:00:00 8,5 7,9 7,1 12,8 18,9 17,4 3 2 4 2 SSW 1017,7 30 0 0,0
16.06.2018 03:00:00 9,2 8,7 8,2 13,3 19,2 17,4 4 2 5 3 SSE 1017,8 35 0 0,0
16.06.2018 02:00:00 9,6 8,6 7,9 13,9 19,5 17,5 5 3 5 3 WSW 1018,0 35 0 0,0
16.06.2018 01:00:00 10,1 8,7 8,5 14,7 19,8 17,5 0 0 5 3 N 1018,0 40 0 0,0
16.06.2018 00:00:00 10,4 8,7 8,4 15,7 20,0 17,5 6 3 9 5 NW 1017,9 40 0 0,0
15.06.2018 23:00:00 12,0 9,6 10,0 16,9 20,2 17,5 3 1 5 3 S 1017,5 40 0 0,0
15.06.2018 22:00:00 14,2 10,2 11,6 18,5 20,3 17,5 4 2 5 3 N 1016,8 10 6 0,0
15.06.2018 21:00:00 17,7 10,3 13,7 20,7 20,2 17,5 3 1 5 3 N 1015,9 45 42 0,0
15.06.2018 20:00:00 20,2 9,3 19,2 22,6 20,1 17,5 4 2 15 8 - 1015,4 10 60 0,0
15.06.2018 19:00:00 20,9 7,2 21,9 24,8 19,8 17,5 4 2 16 9 - 1015,2 10 57 0,0
15.06.2018 18:00:00 20,8 7,9 22,9 26,0 19,5 17,6 9 5 22 12 E 1015,2 10 54 0,0
15.06.2018 17:00:00 21,8 9,1 24,4 26,8 19,1 17,6 5 3 18 10 - 1015,3 10 55 0,0
15.06.2018 16:00:00 20,7 7,1 24,7 27,2 18,7 17,6 11 6 20 11 E 1015,7 10 52 0,0
15.06.2018 15:00:00 20,8 8,5 25,7 27,3 18,2 17,6 6 4 21 11 NE 1016,0 45 49 0,0
15.06.2018 14:00:00 19,7 6,8 24,7 26,2 17,8 17,6 8 5 16 9 S 1016,3 45 47 0,0
15.06.2018 13:00:00 19,6 8,3 25,2 25,0 17,4 17,6 7 4 20 11 NNW 1016,4 45 50 0,0
15.06.2018 12:00:00 18,7 7,0 23,7 23,9 17,0 17,6 11 6 21 11 NNE 1016,6 40 55 0,0

tt = Température de l'air
td = dewpoint
tt 5cm = Température de l'air 5cm
tt -5cm = Température de l'air -5cm
tt -20cm = Température de l'air -20cm
tt -100cm = Température de l'air -100cm
ff = Vitesse du vent
fx = gusts
dd = Direction du vent
ppp = reduced air pressure
vv = visibility
sd = Ensoleillement
rr = Quantités de précipitations

stations d'obs. à proximité